SCOUT B DEB, 29009

Orbit data source: Space-Track

SCOUT B DEB, 29009 is space debris in LEO originally from a launch on Tue, 10 Aug 1965 UTC launched from the Wallops Island (WLPIS). Debris objects in space refer to the collection of defunct objects orbiting the Earth. Examples of debris include non-operational satellites, rocket bodies, and fragments generated from explosions, collisions, or faulty payload assembly.

Loading next visibility...
Identifier
29009, 1965-063P
Orbit
LEO
Country
Flag of USUS
Related business
Manufacturer
Unknown
Mission
Spacecraft
Bus & Motor
Unknown
Mass
Unknown
Launch date (UTC)
1965-08-10 (61 years ago)
Launch vehicle
Unknown
Launch site
Wallops Island (WLPIS)
Object type
Payload
Rocket body
Debris
Shape & HBR
Unknown
Radar Cross Section
Small (<0.1 m²)

Expand to show TLE details & history
Last TLE update: 3 weeks ago

TLE from 3 weeks ago
0 SCOUT B DEB
1 29009U 65063P   26081.71901911  .00000280  00000-0  16453-2 0  9997
2 29009  69.2049 250.7060 0809611   7.5753   9.0830 11.93860412  9918
Epoch: 2026-03-22T17:15Z
TLE epoch observation values (Epoch: 2026-03-22T17:15:23.251Z)
Latitude
17.05859°
Longitude
178.29457°
Altitude
1,064.863 km
Speed
7.607 km/s
True Right ascension
17h 09m 27s
True Declination
16° 57' 59"
Sunlit
Object was in daylight at epoch
Visualization orbit readout
Latitude
Unknown
Longitude
Unknown
Altitude
Unknown
Speed
Unknown
Apparent Right ascension
Unknown
Apparent Declination
Unknown
Sunlit
N/A
Visualization observer readout
Local Sidereal Time
19:33:39
Azimuth
Unknown
Elevation
Unknown
Doppler factor
Unknown
Orbital elements
Apogee altitude
2,361.324 km
Perigee altitude
1,052.199 km
Semi-major axis
8,084.898 km
Eccentricity
0.08096
Inclination
69.2049°
RAAN
250.706°
Arg. of periapsis
7.5753°
True anomaly
10.70915°
Mean anomaly
9.083°
Eccentric anomaly
9.87885°
Mean motion
2.9856 °/min
Orbital period
120.58 mins
BSTAR
0.0016453
Loading maneuver chart data...
Computing Atmospheric mass density...
Loading historical data...
Loading historical data...
Loading historical data...
Loading historical data...
Loading historical data...
Loading historical data...
Loading historical data...

Documentation

Showing up to 5 results
|